TimeCST,TemperatureF,Dew PointF,Humidity,Sea Level PressureIn,VisibilityMPH,Wind Direction,Wind SpeedMPH,Gust SpeedMPH,PrecipitationIn,Events,Conditions,WindDirDegrees,DateUTC
12:53 AM,45.0,27.0,49,29.93,10.0,West,13.8,21.9,N/A,,Clear,280,2012-12-04 06:53:00
1:53 AM,43.0,26.1,51,29.95,10.0,West,15.0,21.9,N/A,,Clear,280,2012-12-04 07:53:00
2:53 AM,42.1,26.1,53,29.98,10.0,WNW,16.1,20.7,N/A,,Clear,290,2012-12-04 08:53:00
3:53 AM,39.0,26.1,60,29.99,10.0,WNW,13.8,-,N/A,,Clear,290,2012-12-04 09:53:00
4:53 AM,37.0,24.1,59,30.02,10.0,WNW,11.5,-,N/A,,Clear,300,2012-12-04 10:53:00
5:53 AM,34.0,24.1,67,30.05,10.0,West,12.7,-,N/A,,Clear,280,2012-12-04 11:53:00
6:53 AM,33.1,19.9,59,30.08,10.0,WNW,15.0,-,N/A,,Clear,300,2012-12-04 12:53:00
7:53 AM,30.9,17.1,57,30.11,10.0,NW,11.5,-,N/A,,Clear,310,2012-12-04 13:53:00
8:53 AM,30.9,17.1,57,30.15,10.0,WNW,16.1,23.0,N/A,,Clear,290,2012-12-04 14:53:00
9:53 AM,30.9,16.0,54,30.19,10.0,NW,16.1,23.0,N/A,,Clear,310,2012-12-04 15:53:00
10:53 AM,32.0,16.0,52,30.20,10.0,NW,13.8,18.4,N/A,,Clear,320,2012-12-04 16:53:00
11:53 AM,33.1,17.1,52,30.20,10.0,WNW,16.1,-,N/A,,Clear,290,2012-12-04 17:53:00
12:53 PM,33.1,15.1,48,30.22,10.0,NW,13.8,24.2,N/A,,Clear,310,2012-12-04 18:53:00
1:53 PM,33.1,14.0,46,30.23,10.0,NW,16.1,26.5,N/A,,Clear,320,2012-12-04 19:53:00
2:53 PM,32.0,12.9,45,30.25,10.0,WNW,15.0,-,N/A,,Clear,290,2012-12-04 20:53:00
3:53 PM,30.9,12.0,46,30.29,10.0,NW,10.4,-,N/A,,Clear,310,2012-12-04 21:53:00
4:53 PM,28.0,10.9,49,30.32,10.0,WNW,12.7,-,N/A,,Clear,300,2012-12-04 22:53:00
5:53 PM,27.0,10.9,51,30.34,10.0,NNW,11.5,-,N/A,,Clear,330,2012-12-04 23:53:00
6:53 PM,26.1,10.9,53,30.35,10.0,NNW,6.9,-,N/A,,Clear,330,2012-12-05 00:53:00
7:53 PM,23.0,10.9,60,30.38,10.0,NW,5.8,-,N/A,,Clear,320,2012-12-05 01:53:00
8:53 PM,23.0,10.9,60,30.39,10.0,NNW,5.8,-,N/A,,Clear,330,2012-12-05 02:53:00
9:53 PM,23.0,10.9,60,30.39,10.0,North,5.8,-,N/A,,Clear,360,2012-12-05 03:53:00
10:53 PM,23.0,10.9,60,30.43,10.0,North,5.8,-,N/A,,Clear,10,2012-12-05 04:53:00
11:53 PM,21.9,10.0,60,30.46,10.0,North,4.6,-,N/A,,Clear,350,2012-12-05 05:53:00